Terminal Aerodrome Forecast
Issued by NWS

Home | Current Version | Previous Version | Text Only | Print | Product List | Glossary Off
Versions: 1 2 3 4 5 6 7 8 9 10 11 12 13 14 15 16 17 18 19

620
FTUS43 KIWX 031904 AAA
TAFSBN
TAF AMD
KSBN 031904Z 0319/0418 23017G24KT P6SM OVC015
     FM032100 25016G23KT 5SM -SHSN OVC015
     FM040000 26013KT 2SM -SHSN OVC012
     FM040500 28011KT P6SM OVC015=

USA.gov is the U.S. government's official web portal to all federal, state and local government web resources and services.